Home > Weather > Poole > Past weeks

Flag for United Kingdom Past Weather in Poole, England, United Kingdom — Yesterday and Last 2 Weeks

Now
64 °F

Light rain. Fog.


Feels Like: 64 °F
Forecast: 57 / 69 °F
Wind: 9 mph from Southwest

Location: Bournemouth Airport

Current Time: Jul 24, 2016 at 5:50:20 PM

Latest Report: Jul 24, 2016 at 5:20 PM


Visibility: 2 mi

Pressure: 30.07 "Hg

Humidity: 94%

Dew Point: 63 °F

Location of PooleLocation

Past Weather in Poole — Graph

°F

Poole Temperature Yesterday

Maximum temperature yesterday: 75 °F (at 11:50 AM)
Minimum temperature yesterday: 54 °F (at 5:50 AM)
Average temperature yesterday: 67 °F

High & Low Weather Summary for the Past Weeks

 TemperatureHumidityPressure
High88 °F (Jul 19, 2:20 PM)100% (Jul 10, 5:50 AM)30.36 "Hg (Jul 10, 5:50 AM)
Low52 °F (Jul 12, 11:20 PM)38% (Jul 20, 3:20 PM)29.71 "Hg (Jul 20, 6:20 AM)
Average67 °F73%30.06 "Hg
* Reported Jul 9 4:20 PM — Jul 24 4:20 PM, Poole, Weather by CustomWeather, © 2016

Note: Actual official high and low records may vary slightly from our data, if they occured in-between our weather recording intervals... More about our weather records

Advertising

Poole Weather History for the Previous 24 Hours

Scroll right to see more
 ConditionsComfort  
Time TempWeatherWind HumidityBarometerVisibility
4:20 PM
Sun, Jul 24
66 °FLight rain. Partly sunny.12 mph88%30.07 "HgN/A
3:50 PM66 °FPartly sunny.13 mph83%30.09 "HgN/A
3:20 PM66 °FBroken clouds.13 mph83%30.09 "HgN/A
2:50 PM66 °FPartly sunny.13 mph83%30.09 "HgN/A
2:20 PM68 °FPartly sunny.12 mph73%30.09 "HgN/A
1:50 PM66 °FBroken clouds.13 mph78%30.09 "HgN/A
1:20 PM66 °FBroken clouds.13 mph73%30.09 "HgN/A
12:50 PM68 °FPartly sunny.13 mph69%30.09 "HgN/A
12:20 PM68 °FPartly sunny.13 mph69%30.09 "HgN/A
11:50 AM66 °FBroken clouds.10 mph73%30.09 "HgN/A
11:20 AM66 °FBroken clouds.12 mph73%30.09 "HgN/A
10:50 AM66 °FBroken clouds.13 mph73%30.12 "HgN/A
10:20 AM66 °FPartly sunny.12 mph73%30.12 "HgN/A
9:50 AM68 °FScattered clouds.12 mph73%30.09 "HgN/A
9:20 AM68 °FScattered clouds.7 mph73%30.09 "HgN/A
8:50 AM66 °FPartly sunny.7 mph78%30.09 "HgN/A
8:20 AM66 °FPartly sunny.10 mph83%30.09 "HgN/A
7:50 AM64 °FPartly sunny.7 mph94%30.12 "HgN/A
7:20 AM63 °FFog.6 mph100%30.09 "Hg1 mi
6:20 AM59 °FLow clouds.1 mph94%30.09 "HgN/A
5:50 AM59 °FPassing clouds.3 mph94%30.09 "HgN/A
11:50 PM
Sat, Jul 23
59 °FPassing clouds.3 mph88%30.15 "HgN/A
11:20 PM61 °FPassing clouds.3 mph83%30.15 "HgN/A
10:50 PM61 °FPassing clouds.7 mph88%30.15 "HgN/A
10:20 PM63 °FPassing clouds.7 mph88%30.12 "HgN/A
9:50 PM63 °FSunny.7 mph83%30.12 "Hg10 mi
9:20 PM64 °FSunny.8 mph78%30.12 "Hg10 mi
8:50 PM66 °FSunny.8 mph73%30.12 "Hg10 mi
8:20 PM66 °FPassing clouds.8 mph73%30.12 "HgN/A
7:50 PM68 °FPassing clouds.9 mph64%30.12 "HgN/A
7:20 PM68 °FPassing clouds.10 mph64%30.12 "HgN/A
6:50 PM70 °FPassing clouds.10 mph60%30.12 "HgN/A
6:20 PM70 °FPassing clouds.12 mph60%30.12 "HgN/A
5:50 PM70 °FPassing clouds.12 mph60%30.12 "HgN/A
5:20 PM72 °FPassing clouds.13 mph57%30.12 "HgN/A
Weather by CustomWeather, © 2016

See weather overviewHow to use our weather pages